Temperature
17 17 17 17 17 16 16 16 16 16 16 16 15 15 15 15 15 15 15 14 14 14 14 14 14 14 14 14 14 14 14 14 14 14 14 14 14 14 14 14 14 14 14
17 16 16 16 16 16 16 16 15 15 15 15 15 15 15 15 15 14 14 14 14 14 14 14 14 13 13 13 13 13 13 13 13 13 13 14 13 14 14 14 13 13 13
16 16 16 15 15 15 15 15 15 15 15 15 15 14 14 14 14 14 14 14 14 14 14 13 13 13 13 13 13 13 13 13 13 13 13 13 13 13 13 13 13 13 13
16 15 15 15 15 15 15 15 15 14 14 14 14 14 14 14 14 14 14 14 14 13 13 13 13 13 13 13 13 13 13 13 13 13 13 13 13 13 13 13 13 13 13
15 15 15 14 14 14 14 14 14 14 14 14 14 14 14 14 14 14 13 13 13 13 13 13 13 13 13 13 12 12 12 12 12 12 12 12 12 12 12 12 12 12 12
15 14 14 14 14 14 14 14 14 13 13 13 13 13 13 13 13 13 13 13 13 13 13 13 13 12 12 12 12 12 12 12 12 12 12 12 12 12 12 12 12 12 12
15 14 14 14 14 14 14 13 13 13 13 13 13 13 13 13 13 13 13 13 13 13 13 13 12 12 12 12 12 12 12 12 12 12 11 12 11 12 11 11 11 11 12
14 14 14 14 14 13 13 13 13 13 13 13 13 13 13 13 13 13 13 13 13 13 13 12 12 12 12 12 12 12 12 12 12 11 11 11 11 11 11 11 11 11 11
14 14 14 14 14 13 13 13 13 13 13 13 13 13 13 12 12 13 13 13 12 13 12 12 12 12 12 12 12 12 12 11 11 11 11 11 11 11 11 11 11 10 10
14 14 14 14 13 13 13 13 13 13 13 13 13 13 13 12 12 12 12 12 12 12 12 12 12 12 12 12 12 11 11 11 11 11 11 11 11 11 11 10 10 10 10
14 14 14 13 13 13 13 13 12 12 12 12 13 13 13 12 12 12 12 12 12 12 12 12 12 12 12 12 11 11 11 11 11 10 10 10 10 10 10 10 10 10 10
14 13 13 13 13 13 13 13 12 12 12 12 13 13 12 12 12 12 12 12 12 12 12 12 12 12 12 11 11 11 11 11 10 10 10 10 10 10 10 10 10 10 10
13 13 13 13 13 13 12 12 12 12 12 12 13 12 12 12 12 12 12 12 12 12 12 11 11 11 11 11 11 11 11 11 10 10 10 10 10 10 10 10 10 10 10
13 12 12 12 12 12 12 12 12 12 12 12 12 12 12 12 12 12 11 12 12 11 11 11 11 11 11 11 11 11 11 10 10 10 10 10 10 10 10 10 10 10 10
12 12 12 12 12 12 12 12 12 12 12 12 12 12 12 12 11 12 11 11 11 11 11 11 11 11 11 11 11 11 10 10 10 10 10 9 9 9 10 10 10 9 9
12 12 12 12 12 12 12 12 12 12 12 12 12 12 12 11 11 11 11 11 11 11 11 11 11 11 11 11 11 10 10 10 10 10 9 9 9 9 9 9 9 9 9
12 12 12 12 12 12 12 12 12 12 12 12 12 11 11 11 11 11 11 11 11 11 11 11 11 10 10 10 10 10 10 10 10 9 9 9 9 9 9 9 9 9 9
11 11 12 12 12 12 12 12 12 12 12 12 12 11 11 11 11 11 11 11 11 10 10 10 10 10 10 10 10 10 10 10 9 9 9 9 9 9 9 9 9 9 9
11 11 11 11 11 12 12 12 12 12 12 12 11 11 11 11 11 11 11 10 10 10 10 10 10 10 10 10 10 10 10 9 9 9 9 9 9 9 9 9 9 9 9
11 11 11 11 11 11 11 12 12 12 12 12 11 11 11 11 11 11 10 10 10 10 10 10 10 10 10 10 9 9 9 9 9 9 9 8 8 8 8 8 8 8 8
10 11 11 11 11 11 11 11 11 11 11 11 11 11 11 11 11 11 11 10 10 10 10 10 10 10 9 9 9 9 9 8 8 8 8 8 8 8 8 8 8 8 8
10 10 11 10 11 11 11 11 11 11 11 11 11 11 11 11 11 10 10 10 10 10 10 9 9 9 9 9 8 8 8 8 8 8 8 8 8 8 8 8 8 8 8
10 10 10 11 11 11 11 11 11 11 11 11 11 10 10 10 10 10 10 10 10 9 9 9 9 9 8 8 8 8 8 8 8 8 7 7 7 7 7 7 8 8 8
10 10 10 10 10 10 10 10 10 10 10 10 10 10 10 10 9 9 9 9 9 9 9 9 9 8 8 8 7 7 7 7 7 7 7 7 7 7 7 7 7 7 7
10 10 10 10 10 10 10 10 10 10 10 10 10 9 9 9 9 9 9 8 8 8 8 8 8 8 8 7 7 7 7 7 7 7 7 7 7 7 7 7 7 7 7
10 10 10 10 10 10 10 10 9 9 9 9 9 9 9 9 8 8 8 8 8 8 8 8 7 7 7 7 7 7 7 7 7 6 6 6 6 6 6 7 7 7 7
Wind_Speed
4 4 3 4 4 3 3 3 3 3 3 3 3 3 3 4 4 4 5 4 4 5 5 5 5 4 3 3 3 3 4 4 5 4 3 2 2 2 3 5 7 8 10
3 3 3 3 3 3 3 3 3 3 3 3 3 3 4 4 4 4 5 4 4 5 5 4 4 4 4 3 3 4 4 3 4 5 4 3 4 4 4 5 6 7 6
3 2 3 3 2 2 2 2 3 3 3 3 3 4 4 4 4 4 5 4 4 4 4 4 4 4 3 3 4 4 4 4 4 5 5 3 3 3 3 4 5 3 6
3 2 2 2 2 2 3 3 2 3 3 3 3 4 4 3 3 3 3 4 4 4 4 4 5 4 4 4 4 4 4 4 4 4 5 4 3 3 2 3 4 4 4
2 2 2 2 2 2 3 2 2 3 3 3 3 4 4 3 3 3 3 4 4 4 4 5 5 5 5 5 5 3 4 4 4 4 4 3 3 2 3 3 4 3 3
2 2 2 2 2 3 3 3 3 3 3 3 4 4 3 4 3 2 3 4 4 4 5 5 5 5 6 7 7 6 5 5 5 4 4 4 4 3 3 3 3 2 3
2 2 2 2 3 3 4 3 3 3 3 3 4 4 3 3 4 3 4 4 5 4 4 4 5 4 4 4 6 8 7 9 8 6 5 5 4 3 3 4 3 3 4
3 3 3 3 3 3 3 2 2 2 3 4 4 4 4 5 4 4 4 5 6 5 4 5 4 3 4 4 4 5 5 5 7 7 6 6 6 3 3 4 5 5 5
3 3 3 3 3 3 3 3 3 3 4 5 5 5 5 4 5 5 4 5 5 5 5 4 4 4 4 4 4 4 4 4 7 8 8 7 7 7 4 3 4 4 5
2 3 3 3 3 3 3 3 3 3 5 5 5 5 5 5 6 6 5 4 4 4 4 4 4 4 4 5 4 4 5 5 5 4 5 7 7 8 9 7 6 5 4
1 2 1 1 2 3 2 2 3 4 4 5 5 5 5 5 6 8 7 4 4 4 4 3 3 5 4 5 5 5 6 5 4 4 5 5 5 6 6 7 7 6 6
1 1 1 1 3 2 2 3 4 4 5 6 5 4 3 4 4 6 8 8 7 5 4 4 3 5 6 7 7 7 7 5 4 5 5 5 5 6 6 6 7 8 7
2 1 1 1 2 2 2 3 4 4 4 4 3 3 2 2 2 5 7 8 9 5 5 5 5 6 7 7 9 8 6 4 5 5 6 6 5 5 4 4 5 6 6
2 2 1 2 2 2 2 3 3 2 2 3 3 3 2 1 0 0 1 3 4 4 4 5 6 7 7 6 6 6 5 5 5 6 5 5 4 4 4 4 4 4 4
2 2 2 3 3 2 2 2 2 1 2 2 2 3 3 3 2 2 2 3 2 2 3 3 4 4 4 5 5 5 5 5 6 5 5 5 4 4 4 4 4 4 5
2 2 3 3 2 2 2 1 2 2 2 2 3 3 2 3 3 3 4 5 5 3 2 4 5 5 5 5 5 4 4 4 4 4 4 4 4 4 4 3 4 5 5
3 3 3 3 2 2 2 2 2 2 3 4 5 6 6 6 5 5 5 4 4 3 3 5 5 5 5 5 4 4 4 4 4 4 4 4 4 4 4 4 3 4 4
4 3 3 3 3 3 2 2 2 2 2 2 4 6 7 8 7 6 4 2 3 4 4 5 5 5 5 4 4 3 3 3 3 3 3 4 4 4 4 4 4 5 5
4 4 3 3 4 4 3 3 3 3 2 2 1 2 6 7 6 6 4 3 5 5 4 4 5 5 5 4 3 3 3 3 3 3 3 4 4 4 4 4 5 6 6
2 3 3 3 4 3 3 4 3 3 3 2 2 2 2 2 3 3 4 4 4 5 4 4 4 4 4 3 3 3 3 2 3 3 3 3 3 4 5 5 5 5 5
3 2 3 4 4 4 3 4 3 3 3 3 3 2 4 4 4 3 3 3 3 4 4 4 4 4 3 3 3 3 3 2 2 3 3 3 3 4 4 5 5 5 4
3 3 3 3 4 3 4 4 4 4 4 4 3 3 4 4 3 3 3 2 3 3 3 3 3 3 3 3 3 3 3 3 3 3 3 3 4 4 4 5 4 4 4
4 4 4 3 3 4 4 4 4 4 4 4 4 4 4 3 3 3 3 3 3 2 2 2 3 3 2 2 2 2 2 3 3 3 3 4 4 4 5 4 5 4 4
4 4 4 3 3 4 4 4 4 5 5 4 4 4 3 3 3 4 4 4 4 3 2 2 3 3 3 2 2 2 2 3 4 3 4 4 4 4 4 4 4 5 5
5 4 4 4 3 3 4 4 4 5 5 5 4 4 4 4 4 4 4 5 5 4 4 3 2 2 3 2 2 2 2 2 3 4 4 4 4 5 5 5 5 5 4
5 5 4 4 4 4 4 4 4 5 5 5 5 4 4 4 5 5 5 5 5 5 4 4 4 3 3 2 2 1 1 2 3 4 4 4 4 5 5 4 6 5 5
Wind_Direction
177 177 171 167 173 181 182 195 194 188 194 196 201 214 216 219 225 223 234 226 218 220 228 224 224 237 248 254 257 256 254 252 262 267 255 236 227 243 221 223 223 210 210
181 171 165 160 166 184 193 192 189 194 203 213 213 220 229 224 222 224 238 237 227 227 231 231 227 237 243 251 257 260 264 259 256 267 266 244 236 222 226 235 235 228 218
175 167 157 166 178 192 203 208 207 206 207 215 222 232 233 226 225 231 234 241 238 234 228 234 236 238 238 245 256 261 264 267 253 255 260 246 233 226 231 251 252 238 237
158 162 167 187 190 204 213 210 209 212 218 220 224 231 241 237 238 242 239 243 241 239 232 232 236 230 230 245 250 252 256 266 267 256 251 245 237 232 222 238 256 241 238
146 154 184 198 192 198 209 205 212 218 223 223 234 239 237 233 244 238 253 249 246 247 244 238 241 229 228 234 247 251 259 259 263 263 255 247 244 238 232 239 250 247 246
152 179 190 192 191 197 201 201 211 217 224 231 241 244 242 244 223 217 245 268 262 249 248 248 240 226 221 220 229 237 237 247 255 261 263 254 247 245 250 254 257 259 261
172 187 182 189 201 208 216 204 205 217 236 251 255 246 236 229 216 225 240 258 259 253 252 248 253 238 218 229 229 233 239 240 236 239 260 268 268 258 261 269 261 261 260
184 195 192 194 199 210 213 202 213 234 245 257 261 253 240 229 214 230 250 247 251 249 243 236 237 236 238 239 242 235 236 237 235 235 241 251 259 253 244 249 255 257 255
202 205 206 206 200 210 215 204 218 231 242 246 251 245 236 217 212 220 236 257 250 249 247 243 230 225 231 225 231 243 250 252 249 242 239 246 249 250 249 265 258 247 262
225 220 219 213 211 224 221 210 224 238 245 248 247 243 237 215 206 208 216 246 261 262 245 233 217 215 224 211 222 239 248 257 268 270 262 261 252 246 234 227 237 243 257
283 248 233 219 234 232 222 218 235 244 252 254 251 243 235 215 207 208 209 229 255 268 262 247 218 197 221 225 230 239 244 252 261 258 257 251 247 241 228 222 224 227 239
315 292 254 229 251 238 219 233 245 252 256 254 251 248 232 211 207 206 212 227 245 260 260 262 237 212 222 229 231 234 240 252 254 257 255 255 249 242 236 225 218 218 226
338 320 293 267 267 251 240 246 250 245 260 267 255 252 248 223 212 201 213 237 246 249 266 281 283 247 240 238 232 228 227 235 241 248 252 252 252 249 245 236 224 221 231
324 307 282 265 263 254 256 264 264 263 267 281 286 290 291 259 173 197 245 253 261 254 268 279 266 248 240 239 237 231 226 233 238 248 256 257 256 253 249 244 235 226 235
301 288 275 270 265 248 244 269 271 269 242 250 273 283 290 297 279 222 233 250 265 283 296 272 261 250 237 233 235 229 225 228 239 247 253 258 256 251 249 239 233 232 237
303 293 289 287 282 273 254 275 319 255 215 220 226 245 271 256 245 237 240 243 241 236 253 264 264 256 246 243 240 234 231 233 239 246 253 255 257 258 256 243 231 232 237
318 304 297 297 294 284 279 259 270 300 290 267 245 238 239 254 260 261 263 264 255 218 233 255 261 263 260 253 253 247 246 241 237 245 246 250 253 253 253 251 249 245 245
321 307 304 304 305 292 287 280 267 259 257 274 258 237 234 240 247 253 257 284 271 238 243 252 259 265 269 265 264 266 262 250 235 238 246 249 250 249 249 243 241 245 248
321 317 316 311 304 299 295 288 283 284 271 256 267 251 237 235 236 236 212 230 255 261 261 260 266 269 268 265 266 271 270 267 256 242 245 247 244 245 250 249 247 249 247
318 321 311 303 297 298 299 296 292 291 297 289 276 286 265 253 254 232 220 234 253 266 274 277 279 279 280 283 281 281 281 278 282 274 268 261 254 250 249 249 249 248 246
320 317 286 288 299 305 304 302 302 297 300 303 305 294 282 271 264 252 245 248 260 267 276 286 289 291 289 288 292 293 286 278 283 291 290 281 271 259 250 248 249 247 243
307 303 301 305 307 314 313 302 301 304 305 305 299 289 279 289 298 303 295 280 270 269 282 290 293 294 306 302 297 292 290 289 286 283 284 283 278 273 266 255 249 244 239
295 299 297 299 309 315 305 308 313 314 311 311 314 312 308 317 330 329 315 313 308 303 303 300 298 300 311 309 312 307 303 304 295 277 268 270 277 278 273 264 253 243 239
298 295 297 301 307 308 314 323 327 328 324 324 324 319 318 319 320 322 324 326 321 318 318 320 323 329 326 329 332 340 349 339 323 304 286 276 275 279 274 265 255 244 237
301 302 309 315 317 319 324 327 335 336 335 333 331 329 328 333 340 341 345 341 333 336 341 348 352 340 323 319 324 335 348 338 327 320 299 279 272 273 275 270 262 255 245
313 317 320 320 319 325 336 340 341 342 341 342 347 347 346 347 348 351 351 348 340 340 343 348 348 349 346 347 346 18 20 338 329 318 301 275 270 272 275 273 271 259 248
Height
1469 1471 1472 1473 1474 1476 1477 1478 1480 1481 1483 1484 1485 1487 1488 1489 1489 1490 1491 1491 1491 1492 1493 1494 1494 1495 1496 1496 1497 1497 1498 1498 1498 1498 1498 1498 1499 1499 1499 1499 1500 1500 1500
1468 1469 1470 1471 1473 1474 1475 1476 1477 1478 1479 1481 1482 1483 1484 1485 1486 1487 1487 1488 1488 1489 1490 1490 1491 1492 1492 1492 1493 1493 1494 1494 1494 1494 1494 1494 1495 1495 1495 1496 1496 1496 1496
1467 1467 1468 1469 1470 1471 1472 1473 1475 1476 1477 1478 1479 1480 1481 1482 1483 1483 1484 1484 1485 1485 1486 1487 1487 1488 1488 1489 1489 1489 1490 1490 1490 1490 1489 1490 1491 1491 1491 1492 1492 1492 1492
1465 1465 1466 1468 1468 1469 1470 1471 1472 1473 1474 1475 1476 1477 1478 1479 1480 1480 1481 1481 1482 1482 1482 1483 1484 1484 1484 1485 1485 1485 1486 1486 1486 1485 1485 1485 1486 1487 1487 1487 1487 1488 1488
1463 1464 1464 1466 1466 1467 1468 1469 1470 1471 1471 1473 1473 1474 1475 1476 1477 1477 1478 1478 1478 1478 1479 1479 1480 1480 1480 1480 1481 1481 1481 1481 1481 1481 1481 1481 1482 1482 1483 1483 1483 1483 1483
1461 1462 1463 1464 1464 1465 1466 1467 1468 1469 1469 1470 1470 1471 1471 1472 1473 1473 1474 1474 1474 1474 1474 1475 1475 1476 1476 1476 1476 1477 1477 1477 1477 1477 1477 1477 1477 1478 1479 1479 1479 1479 1479
1460 1461 1461 1462 1463 1464 1465 1466 1466 1466 1467 1467 1467 1468 1468 1468 1469 1470 1470 1470 1470 1470 1470 1471 1471 1471 1472 1472 1472 1472 1473 1473 1473 1473 1473 1473 1473 1474 1474 1474 1474 1475 1474
1458 1459 1460 1460 1461 1462 1463 1463 1464 1464 1464 1464 1465 1465 1465 1465 1466 1466 1466 1466 1467 1467 1467 1467 1467 1468 1468 1468 1468 1468 1468 1468 1468 1469 1469 1469 1469 1470 1470 1470 1471 1471 1471
1456 1457 1458 1459 1460 1461 1461 1461 1461 1462 1462 1462 1462 1462 1462 1462 1463 1463 1463 1463 1463 1464 1464 1464 1464 1464 1464 1464 1464 1464 1464 1464 1464 1464 1464 1465 1465 1465 1466 1466 1466 1467 1466
1455 1456 1457 1457 1458 1458 1459 1459 1459 1459 1459 1459 1459 1459 1459 1459 1459 1459 1460 1459 1459 1460 1460 1460 1460 1460 1461 1460 1460 1460 1459 1459 1460 1459 1460 1460 1460 1460 1461 1461 1462 1462 1462
1453 1454 1454 1455 1456 1456 1456 1457 1457 1457 1457 1457 1456 1456 1456 1455 1455 1456 1456 1456 1456 1456 1456 1456 1456 1456 1456 1456 1456 1456 1456 1456 1455 1455 1455 1455 1455 1455 1456 1456 1457 1457 1458
1451 1451 1452 1453 1453 1454 1454 1454 1454 1454 1454 1454 1453 1453 1452 1452 1452 1451 1451 1452 1452 1452 1452 1452 1452 1452 1452 1452 1452 1452 1452 1452 1451 1451 1451 1450 1451 1451 1451 1452 1452 1453 1453
1449 1449 1450 1450 1451 1451 1451 1451 1452 1452 1451 1451 1451 1450 1450 1449 1448 1448 1448 1448 1448 1448 1448 1449 1449 1449 1448 1448 1449 1448 1448 1447 1447 1446 1446 1446 1447 1447 1447 1448 1448 1448 1449
1447 1447 1448 1448 1449 1449 1449 1449 1449 1449 1448 1448 1448 1447 1447 1446 1445 1444 1444 1444 1444 1444 1445 1445 1445 1445 1445 1445 1444 1444 1443 1443 1442 1442 1442 1442 1443 1443 1443 1443 1443 1444 1444
1446 1446 1446 1446 1446 1446 1446 1446 1446 1445 1445 1445 1445 1444 1444 1443 1442 1442 1441 1441 1441 1441 1441 1441 1440 1440 1440 1440 1440 1439 1439 1439 1438 1438 1438 1438 1438 1439 1439 1439 1440 1440 1440
1445 1445 1445 1445 1444 1444 1443 1443 1443 1443 1443 1442 1442 1442 1441 1441 1440 1439 1438 1438 1438 1438 1438 1437 1436 1436 1436 1436 1435 1435 1435 1435 1434 1434 1434 1434 1434 1434 1435 1435 1436 1436 1436
1444 1443 1443 1443 1442 1442 1441 1440 1440 1440 1440 1440 1439 1439 1438 1438 1438 1437 1436 1435 1435 1435 1434 1433 1433 1433 1433 1432 1432 1431 1431 1430 1430 1430 1430 1430 1430 1430 1431 1431 1432 1432 1432
1442 1442 1442 1441 1441 1440 1439 1439 1438 1438 1437 1437 1437 1436 1436 1435 1435 1434 1433 1432 1432 1431 1431 1430 1430 1430 1429 1429 1428 1428 1427 1427 1426 1426 1426 1426 1426 1426 1427 1427 1427 1428 1428
1440 1440 1440 1440 1439 1438 1438 1437 1437 1436 1435 1434 1434 1433 1433 1433 1432 1431 1430 1429 1429 1428 1428 1428 1427 1427 1426 1425 1425 1424 1424 1423 1423 1422 1422 1422 1422 1422 1422 1423 1423 1423 1424
1439 1439 1438 1438 1437 1437 1436 1435 1435 1434 1433 1433 1432 1431 1430 1430 1429 1428 1427 1427 1426 1426 1425 1425 1424 1423 1422 1422 1421 1420 1419 1419 1419 1418 1418 1418 1418 1418 1418 1418 1419 1419 1419
1438 1438 1437 1437 1436 1435 1434 1433 1433 1432 1431 1431 1430 1429 1428 1427 1426 1425 1425 1424 1423 1423 1422 1421 1420 1419 1419 1418 1417 1416 1415 1415 1415 1414 1414 1414 1414 1414 1414 1414 1414 1415 1415
1438 1437 1436 1436 1435 1434 1432 1432 1431 1430 1429 1428 1427 1427 1426 1424 1423 1422 1422 1421 1420 1419 1418 1418 1417 1416 1415 1414 1413 1412 1412 1411 1410 1410 1410 1410 1410 1410 1410 1410 1410 1410 1411
1436 1435 1434 1434 1433 1432 1431 1430 1429 1428 1427 1426 1424 1423 1423 1422 1420 1419 1419 1418 1417 1415 1414 1414 1413 1412 1411 1410 1409 1408 1407 1407 1406 1406 1405 1405 1405 1405 1406 1406 1406 1406 1407
1434 1433 1432 1431 1430 1429 1429 1428 1427 1426 1425 1423 1422 1421 1420 1419 1418 1417 1416 1415 1413 1412 1411 1410 1409 1408 1407 1406 1405 1404 1403 1403 1402 1402 1402 1401 1401 1401 1402 1402 1402 1403 1403
1432 1431 1430 1429 1428 1427 1426 1425 1424 1423 1422 1421 1419 1418 1417 1416 1415 1414 1413 1411 1410 1409 1407 1406 1405 1403 1402 1401 1401 1400 1399 1399 1398 1398 1397 1397 1397 1397 1397 1398 1398 1399 1399
1429 1429 1428 1427 1426 1425 1424 1423 1422 1421 1420 1419 1417 1416 1415 1414 1412 1411 1409 1408 1406 1405 1403 1402 1401 1399 1398 1397 1396 1395 1395 1394 1394 1393 1393 1393 1393 1393 1393 1393 1394 1394 1395